N1MRE Weather Reports


Display with metric or nautical units.
time (UTC)temp
F
wind
direction
speed
MPH
gust
MPH
rain 1hr
in
rain 24hr
in
rain mn
in
humidity
%
barometer
mb
20260504204557 67 251 9.0 23.0 0.00 0.00 0.00 39 1004.4
20260504203117 67 267 1.0 12.0 0.00 0.00 0.00 43 1004.4
20260504201556 67 268 5.0 12.0 0.00 0.00 0.00 44 1004.6
20260504200053 68 278 4.0 13.0 0.00 0.00 0.00 40 1004.7
20260504194604 67 0 2.0 15.0 0.00 0.00 0.00 41 1004.9
20260504193105 66 157 6.0 15.0 0.00 0.00 0.00 46 1005.2
20260504191550 64 289 3.0 11.0 0.00 0.00 0.00 47 1005.3
20260504190105 62 242 7.0 16.0 0.00 0.00 0.00 51 1005.5
20260504184559 61 282 3.0 10.0 0.00 0.00 0.00 53 1005.6
20260504183051 60 237 3.0 9.0 0.00 0.00 0.00 53 1005.7
20260504181549 59 25 1.0 8.0 0.00 0.00 0.00 53 1005.8
20260504180051 59 13 3.0 8.0 0.00 0.00 0.00 54 1006.1
20260504174601 59 331 3.0 14.0 0.00 0.00 0.00 54 1006.0
20260504173056 60 322 4.0 19.0 0.00 0.00 0.00 51 1005.9
20260504171551 60 309 7.0 21.0 0.00 0.00 0.00 53 1006.0
20260504140106 57 303 4.0 14.0 0.00 0.00 0.00 61 1006.5
20260504110118 39 146 2.0 6.0 0.00 0.05 0.00 85 1007.8
20260504100103 39 0 1.0 4.0 0.00 0.07 0.00 81 1007.6
20260504090121 38 0 1.0 5.0 0.00 0.07 0.00 82 1007.8
20260504081554 37 192 2.0 4.0 0.00 0.07 0.00 85 1007.8
20260504044559 35 0 0.0 0.0 0.00 0.07 0.00 83 1007.5
20260504043051 36 0 0.0 0.0 0.00 0.07 0.00 83 1007.5
20260504041553 36 0 0.0 0.0 0.00 0.07 0.00 82 1007.3
20260504040049 37 155 0.0 6.0 0.00 0.07 0.00 82 1007.4
20260504034554 38 148 2.0 5.0 0.00 0.07 0.07 81 1007.3
20260504033054 38 165 1.0 6.0 0.00 0.07 0.07 78 1007.3
20260504031551 39 200 0.0 3.0 0.00 0.07 0.07 78 1007.3
20260504030052 39 0 0.0 4.0 0.00 0.07 0.07 71 1007.2
20260504024557 40 193 0.0 7.0 0.00 0.08 0.07 74 1007.3
20260504023051 39 0 0.0 5.0 0.00 0.08 0.07 75 1007.3
20260504021553 39 161 2.0 5.0 0.00 0.08 0.07 78 1007.3
20260504020051 38 154 4.0 8.0 0.00 0.08 0.07 81 1007.3
20260504014552 38 185 3.0 9.0 0.00 0.08 0.07 81 1007.2
20260504013051 39 158 2.0 8.0 0.00 0.08 0.07 79 1007.2
20260504011550 39 0 0.0 3.0 0.00 0.08 0.07 74 1007.0
20260504010058 40 0 0.0 2.0 0.00 0.08 0.07 74 1006.9
20260504004550 41 0 0.0 3.0 0.00 0.09 0.07 72 1006.8
20260504003052 42 254 2.0 6.0 0.00 0.09 0.07 70 1006.6
20260504001605 43 0 0.0 3.0 0.00 0.09 0.07 66 1006.6
20260504000049 44 336 1.0 7.0 0.00 0.09 0.07 61 1006.4
20260503234550 46 327 1.0 8.0 0.00 0.09 0.07 57 1006.2
20260503233050 46 316 2.0 9.0 0.00 0.09 0.07 54 1006.1
20260503231550 47 17 3.0 14.0 0.00 0.09 0.07 53 1006.1
20260503230051 48 306 6.0 16.0 0.00 0.09 0.07 50 1005.8
20260503224550 48 271 6.0 17.0 0.00 0.09 0.07 49 1005.6
20260503223050 49 291 5.0 20.0 0.00 0.09 0.07 49 1005.6
20260503221551 49 340 7.0 16.0 0.00 0.09 0.07 49 1005.3
20260503220108 50 0 4.0 20.0 0.00 0.09 0.07 48 1005.2
20260503214547 51 285 8.0 22.0 0.00 0.09 0.07 45 1005.2
20260503213050 50 28 11.0 26.0 0.00 0.09 0.07 45 1005.0
20260503211601 50 342 8.0 23.0 0.00 0.09 0.07 45 1004.8
20260503210056 50 51 9.0 21.0 0.00 0.09 0.07 46 1004.8